This demonstration page uses our WeatherBlox Daily Observations layout. Learn more.

Left ArrowRight Arrow

Hourly Observations for March 13, 2015

Temp ( °F °C ) Dew Point ( °F °C ) Humidity (%) Winds ( mph kmh ) Pressure ( in mb ) Visibility ( mi km ) Precip ( " mm )
12:53 am 00:53 Clear 55 12.8 49 9.4 80 80 Calm 30.14 1021 10 16 0.00 0.00
1:53 am 01:53 Clear 55 12.8 48 8.9 77 77 NW 6 9 30.14 1021 10 16 0.00 0.00
2:53 am 02:53 Clear 53 11.7 49 9.4 86 86 NNE 3 6 30.15 1021 10 16 0.00 0.00
3:53 am 03:53 Clear 54 12.2 48 8.9 80 80 Calm 30.13 1020 10 16 0.00 0.00
4:53 am 04:53 Clear 52 11.1 48 8.9 86 86 Calm 30.14 1021 10 16 0.00 0.00
5:53 am 05:53 Clear 51 10.6 48 8.9 89 89 Calm 30.14 1021 10 16 0.00 0.00
6:39 am 06:39 Clear with Mist and Fog 47 8.3 45 7.2 93 93 S 3 6 30.15 1021 1 2 0.00 0.00
6:46 am 06:46 Clear with Mist and Fog 48 8.9 46 7.8 93 93 S 5 7 30.18 1022 1 1 0.00 0.00
6:50 am 06:50 Clear with Mist and Fog 48 9 46 8 94 94 SSW 3 6 30.18 1022 2 2 0.00 0.00
6:53 am 06:53 Clear with Mist and Fog 48 8.9 46 7.8 93 93 SW 3 6 30.16 1021 2 3 0.00 0.00
6:59 am 06:59 Clear with Mist and Fog 49 9.4 47 8.3 93 93 SW 3 6 30.18 1022 3 5 0.00 0.00
7:53 am 07:53 Sunny 49 9.4 47 8.3 93 93 Calm 30.18 1022 10 16 0.00 0.00
8:53 am 08:53 Sunny 52 11.1 48 8.9 86 86 NE 3 6 30.19 1022 10 16 0.00 0.00
9:53 am 09:53 Sunny 59 15 50 10 72 72 Calm 30.20 1023 10 16 0.00 0.00
10:53 am 10:53 Sunny 66 18.9 51 10.6 59 59 Calm 30.19 1022 10 16 0.00 0.00
11:53 am 11:53 Sunny 68 20 52 11.1 57 57 VRB 3 6 30.16 1021 10 16 0.00 0.00
12:53 pm 12:53 Sunny 72 22.2 52 11.1 50 50 VRB 3 6 30.14 1021 10 16 0.00 0.00
1:53 pm 13:53 Sunny 73 22.8 47 8.3 40 40 S 3 6 30.12 1020 10 16 0.00 0.00
2:53 pm 14:53 Sunny 75 23.9 50 10 41 41 VRB 3 6 30.09 1019 10 16 0.00 0.00
3:53 pm 15:53 Sunny 76 24.4 49 9.4 39 39 SE 5 7 30.08 1019 10 16 0.00 0.00
4:53 pm 16:53 Sunny 75 23.9 47 8.3 37 37 E 5 7 30.07 1018 10 16 0.00 0.00
5:53 pm 17:53 Sunny 74 23.3 49 9.4 41 41 Calm 30.06 1018 10 16 0.00 0.00
6:53 pm 18:53 Sunny 72 22.2 51 10.6 48 48 Calm 30.06 1018 10 16 0.00 0.00
7:53 pm 19:53 Clear 68 20 54 12.2 61 61 E 3 6 30.06 1018 10 16 0.00 0.00
8:53 pm 20:53 Clear 68 20 54 12.2 61 61 Calm 30.07 1018 10 16 0.00 0.00
9:53 pm 21:53 Clear 67 19.4 53 11.7 61 61 Calm 30.09 1019 10 16 0.00 0.00
10:53 pm 22:53 Cloudy 66 18.9 53 11.7 63 63 Calm 30.10 1019 10 16 0.00 0.00
11:53 pm 23:53 Cloudy 65 18.3 54 12.2 68 68 Calm 30.11 1020 10 16 0.00 0.00

Powered by AerisWeather